Hourly Data Report for September 15, 2007

PETERBOROUGH AWOS
ONTARIO

44°14'00.000" N
78°22'00.000" W
191.40 m
6166420

Download Data

Hourly Data (September 2007)
Hourly Data Report for September 15, 2007
TIME
LST
Temp Definition
°C
Dew Point Definition
°C
Rel Hum Definition
%
Precip. Amount Definition
mm

Wind Dir Definition
10's deg

Wind Spd Definition
km/h
Visibility Definition
km
Stn Press Definition
kPa
Hmdx Definition


Wind Chill Definition


Weather Definition


00:00 10.9 9.2 89   28 7 15.0 99.01      
01:00 8.6 8.3 98   25 6 15.0 99.04      
02:00 9.5 8.8 95   26 7 15.0 99.07      
03:00 9.4 8.6 95   23 7 15.0 99.10      
04:00 9.3 8.9 97   25 9 15.0 99.13     Rain
05:00 8.6 8.1 97   27 7 15.0 99.20      
06:00 7.9 6.9 93   27 9 15.0 99.27      
07:00 8.7 7.5 92   29 11 15.0 99.31      
08:00 9.9 7.8 87   32 11 15.0 99.39      
09:00 10.8 6.7 76   1 13 15.0 99.49      
10:00 11.4 7.0 74   33 22 15.0 99.54      
11:00 11.6 5.2 65   30 24 15.0 99.60      
12:00 11.3 4.0 61   34 17 15.0 99.66      
13:00 11.8 3.1 55   32 11 15.0 99.67      
14:00 12.5 4.0 56   29 22 15.0 99.69      
15:00 12.5 5.1 61   29 22 15.0 99.72      
16:00 12.1 4.4 59   30 19 15.0 99.78      
17:00 11.5 4.1 60   31 9 15.0 99.85      
18:00 11.1 4.0 62   30 7 15.0 99.88      
19:00 8.9 3.7 70   31 7 15.0 99.94      
20:00 5.1 3.0 86     0 15.0 99.99      
21:00 3.3 2.9 97   26 4 15.0 100.02      
22:00 0.9 0.8 99   25 7 15.0 100.05      
23:00 3.7 2.1 89   25 4 15.0 100.05      

Notes on Data Quality.

Legend

  • E = Estimated
  • M = Missing
  • NA = Not Available*
  • [empty] = Indicates an unobserved value
Date modified: